EW4336 Weather Reports


time (UTC)temp
C
wind
direction
speed
KPH
gust
KPH
rain 1hr
cm
rain 24hr
cm
rain mn
cm
humidity
%
barometer
mb
20260507231129 14 255 0.0 6.4 0.00 0.00 0.00 43 1010.2
20260507230626 14 288 0.0 8.0 0.00 0.00 0.00 42 1010.3
20260507230127 14 248 1.6 9.7 0.00 0.00 0.00 41 1010.2
20260507225628 14 264 3.2 9.7 0.00 0.00 0.00 42 1010.3
20260507225127 14 257 0.0 4.8 0.00 0.00 0.00 41 1010.2
20260507224627 14 248 0.0 3.2 0.00 0.00 0.00 43 1010.2
20260507223627 15 283 0.0 11.3 0.00 0.00 0.00 41 1010.0
20260507223127 15 278 3.2 9.7 0.00 0.00 0.00 42 1010.0
20260507222128 15 251 3.2 11.3 0.00 0.00 0.00 40 1009.9
20260507221626 15 240 1.6 8.0 0.00 0.00 0.00 40 1009.8
20260507221127 15 300 1.6 6.4 0.00 0.00 0.00 41 1009.8
20260507220629 15 255 3.2 6.4 0.00 0.00 0.00 39 1009.7
20260507215627 15 233 0.0 6.4 0.00 0.00 0.00 40 1009.6
20260507215128 15 271 1.6 4.8 0.00 0.00 0.00 40 1009.7
20260507214627 15 261 0.0 9.7 0.00 0.00 0.00 40 1009.7
20260507214128 15 252 1.6 14.5 0.00 0.00 0.00 39 1009.6
20260507213626 15 248 3.2 14.5 0.00 0.00 0.00 41 1009.5
20260507213126 15 244 3.2 9.7 0.00 0.00 0.00 39 1009.4
20260507212127 15 272 0.0 9.7 0.00 0.00 0.00 42 1009.5
20260507211626 15 275 0.0 9.7 0.00 0.00 0.00 42 1009.6
20260507210627 15 238 0.0 6.4 0.00 0.00 0.00 43 1009.4
20260507205627 15 299 6.4 16.1 0.00 0.00 0.00 39 1009.3
20260507205127 15 245 1.6 6.4 0.00 0.00 0.00 39 1009.2
20260507204626 15 264 1.6 11.3 0.00 0.00 0.00 38 1009.2
20260507204126 15 265 4.8 11.3 0.00 0.00 0.00 37 1009.3
20260507203627 16 265 3.2 8.0 0.00 0.00 0.00 38 1009.3
20260507203127 16 231 1.6 11.3 0.00 0.00 0.00 38 1009.2
20260507202627 16 261 1.6 11.3 0.00 0.00 0.00 41 1009.4
20260507202126 16 217 1.6 17.7 0.00 0.00 0.00 38 1009.4
20260507200127 16 266 1.6 8.0 0.00 0.00 0.00 41 1009.7
20260507195628 16 274 3.2 11.3 0.00 0.00 0.00 40 1009.6
20260507194126 16 305 8.0 17.7 0.00 0.00 0.00 38 1009.8
20260507193628 16 288 3.2 9.7 0.00 0.00 0.00 42 1009.7
20260507193127 16 285 3.2 9.7 0.00 0.00 0.00 41 1009.9
20260507192627 16 258 1.6 9.7 0.00 0.00 0.00 44 1009.8
20260507192127 16 261 3.2 9.7 0.00 0.00 0.00 41 1009.9
20260507191627 16 219 3.2 8.0 0.00 0.00 0.00 43 1009.8
20260507191126 16 223 1.6 6.4 0.00 0.00 0.00 47 1009.9
20260507190626 15 158 1.6 11.3 0.00 0.00 0.00 42 1010.0
20260507190127 16 255 3.2 11.3 0.00 0.00 0.00 43 1010.0
20260507185627 16 289 1.6 8.0 0.00 0.00 0.00 43 1009.9
20260507185127 16 165 0.0 8.0 0.00 0.00 0.00 43 1010.0
20260507184627 16 223 0.0 6.4 0.00 0.00 0.00 44 1010.0
20260507184128 16 203 0.0 6.4 0.00 0.00 0.00 44 1010.1
20260507183626 16 188 0.0 4.8 0.00 0.00 0.00 46 1010.2
20260507183127 15 148 0.0 3.2 0.00 0.00 0.00 46 1010.2
20260507182627 15 233 0.0 3.2 0.00 0.00 0.00 44 1010.3
20260507182127 15 244 1.6 8.0 0.00 0.00 0.00 43 1010.3
20260507181626 16 305 1.6 11.3 0.00 0.00 0.00 45 1010.3
20260507181126 16 217 3.2 14.5 0.00 0.00 0.00 44 1010.3
20260507180626 16 158 0.0 14.5 0.00 0.00 0.00 43 1010.3
20260507180126 15 210 0.0 9.7 0.00 0.00 0.00 46 1010.3
20260507175627 15 186 1.6 6.4 0.00 0.00 0.00 45 1010.5
20260507175126 15 264 0.0 8.0 0.00 0.00 0.00 48 1010.5
20260507174630 15 305 3.2 8.0 0.00 0.00 0.00 45 1010.4
20260507174126 15 281 0.0 6.4 0.00 0.00 0.00 46 1010.6
20260507173628 15 257 0.0 3.2 0.00 0.00 0.00 48 1010.7
20260507173126 15 237 0.0 6.4 0.00 0.00 0.00 47 1010.8
20260507172627 15 230 0.0 6.4 0.00 0.00 0.00 45 1010.8
20260507171626 16 56 0.0 3.2 0.00 0.00 0.00 44 1010.9
20260507171125 16 254 0.0 3.2 0.00 0.00 0.00 43 1011.0
20260507170625 16 200 0.0 4.8 0.00 0.00 0.00 45 1011.1
20260507170124 16 221 0.0 8.0 0.00 0.00 0.00 43 1011.1
20260507165626 16 259 1.6 11.3 0.00 0.00 0.00 43 1011.1
20260507165125 16 135 0.0 11.3 0.00 0.00 0.00 48 1011.1
20260507164625 15 250 1.6 9.7 0.00 0.00 0.00 47 1011.3
20260507164126 15 285 1.6 9.7 0.00 0.00 0.00 46 1011.2
20260507162625 14 200 0.0 6.4 0.00 0.00 0.00 48 1011.5
20260507162129 14 230 1.6 6.4 0.00 0.00 0.00 46 1011.6
20260507161626 14 268 0.0 3.2 0.00 0.00 0.00 47 1011.7
20260507160626 15 219 0.0 8.0 0.00 0.00 0.00 44 1011.6
20260507160126 15 210 0.0 4.8 0.00 0.00 0.00 50 1011.7
20260507155626 15 259 0.0 3.2 0.00 0.00 0.00 50 1011.8
20260507155126 14 262 0.0 3.2 0.00 0.00 0.00 48 1011.8
20260507154626 15 231 0.0 6.4 0.00 0.00 0.00 48 1011.9
20260507154126 15 250 0.0 6.4 0.00 0.00 0.00 45 1011.9
20260507153627 16 185 0.0 1.6 0.00 0.00 0.00 48 1011.9
20260507153126 15 220 0.0 3.2 0.00 0.00 0.00 49 1011.9
20260507152626 15 281 0.0 6.4 0.00 0.00 0.00 48 1012.0
20260507152126 14 265 0.0 6.4 0.00 0.00 0.00 48 1012.1
20260507151627 14 214 0.0 4.8 0.00 0.00 0.00 50 1012.1
20260507150626 14 262 0.0 4.8 0.00 0.00 0.00 52 1012.2
20260507150126 13 204 0.0 4.8 0.00 0.00 0.00 51 1012.3
20260507145626 14 258 0.0 3.2 0.00 0.00 0.00 51 1012.4
20260507144625 13 271 0.0 6.4 0.00 0.03 0.00 49 1012.7
20260507144126 13 259 1.6 6.4 0.00 0.03 0.00 47 1012.7
20260507143626 14 130 0.0 4.8 0.00 0.03 0.00 49 1012.7
20260507143127 14 193 0.0 6.4 0.00 0.03 0.00 52 1012.7
20260507142626 13 157 1.6 6.4 0.00 0.03 0.00 54 1012.7
20260507142128 13 293 0.0 6.4 0.00 0.03 0.00 53 1012.8
20260507141626 13 96 0.0 6.4 0.00 0.03 0.00 55 1013.0
20260507141126 13 243 0.0 9.7 0.00 0.03 0.00 53 1013.0
20260507140125 14 203 0.0 1.6 0.00 0.03 0.00 56 1013.0
20260507135625 14 238 0.0 0.0 0.00 0.03 0.00 60 1013.1
20260507134126 13 220 0.0 0.0 0.00 0.05 0.00 57 1013.2
20260507133626 14 154 0.0 0.0 0.00 0.05 0.00 61 1013.3
20260507133127 13 230 0.0 0.0 0.00 0.05 0.00 61 1013.3
20260507132627 13 159 0.0 0.0 0.00 0.05 0.00 63 1013.4
20260507132126 13 212 0.0 0.0 0.00 0.05 0.00 67 1013.5
20260507131628 13 109 0.0 0.0 0.00 0.05 0.00 62 1013.5
20260507131125 13 151 0.0 0.0 0.00 0.05 0.00 65 1013.4
20260507130126 12 227 0.0 0.0 0.00 0.08 0.00 65 1013.3
20260507125626 12 255 0.0 0.0 0.00 0.10 0.00 65 1013.4
20260507125126 12 212 0.0 0.0 0.00 0.10 0.00 68 1013.4
20260507124626 12 245 0.0 0.0 0.00 0.10 0.00 69 1013.4
20260507124126 12 135 0.0 0.0 0.00 0.10 0.00 71 1013.3
20260507123626 11 135 0.0 0.0 0.00 0.10 0.00 75 1013.4
20260507123126 10 135 0.0 0.0 0.00 0.10 0.00 78 1013.5
20260507122127 9 135 0.0 0.0 0.00 0.13 0.00 81 1013.5
20260507121625 9 135 0.0 0.0 0.00 0.13 0.00 83 1013.6
20260507120627 7 135 0.0 0.0 0.00 0.15 0.00 90 1013.5
20260507120126 6 135 0.0 0.0 0.00 0.18 0.00 92 1013.5
20260507115625 6 135 0.0 0.0 0.00 0.20 0.00 92 1013.5
20260507115126 5 135 0.0 0.0 0.00 0.20 0.00 90 1013.5
20260507113626 3 223 0.0 0.0 0.00 0.23 0.00 91 1013.3
20260507113126 3 223 0.0 0.0 0.00 0.23 0.00 91 1013.3
20260507112626 3 223 0.0 0.0 0.00 0.23 0.00 92 1013.2
20260507111627 2 223 0.0 0.0 0.00 0.23 0.00 92 1013.1
20260507110628 2 223 0.0 0.0 0.00 0.23 0.00 92 1013.1
20260507110126 2 223 0.0 0.0 0.00 0.23 0.00 92 1013.2
20260507105627 2 223 0.0 0.0 0.00 0.25 0.00 92 1013.2
20260507105125 2 223 0.0 0.0 0.00 0.28 0.00 92 1013.1
20260507104126 2 223 0.0 0.0 0.00 0.33 0.00 92 1012.9
20260507103625 2 223 0.0 0.0 0.00 0.36 0.00 92 1012.9
20260507102627 2 223 0.0 0.0 0.00 0.38 0.00 92 1012.8
20260507102126 2 223 0.0 0.0 0.00 0.43 0.00 92 1012.8
20260507101626 2 223 0.0 0.0 0.00 0.48 0.00 92 1012.8
20260507101126 2 223 0.0 0.0 0.00 0.53 0.00 92 1012.8
20260507100625 2 223 0.0 0.0 0.00 0.58 0.00 92 1012.7
20260507095625 2 223 0.0 0.0 0.00 0.66 0.00 92 1012.8
20260507095127 2 223 0.0 0.0 0.00 0.74 0.00 92 1012.7
20260507094126 2 223 0.0 0.0 0.00 0.76 0.00 92 1012.7
20260507093627 2 223 0.0 0.0 0.00 0.76 0.00 92 1012.7
20260507093126 2 223 0.0 0.0 0.00 0.79 0.00 92 1012.7
20260507091626 3 223 0.0 0.0 0.00 0.86 0.00 92 1012.9
20260507091126 3 223 0.0 0.0 0.00 0.89 0.00 92 1012.9
20260507090627 3 223 0.0 0.0 0.00 0.94 0.00 92 1012.9
20260507090125 3 223 0.0 0.0 0.00 0.97 0.00 92 1013.0
20260507085626 3 223 0.0 0.0 0.00 0.99 0.00 92 1013.0
20260507084626 3 223 0.0 0.0 0.00 1.04 0.00 92 1012.9
20260507084125 3 223 0.0 0.0 0.00 1.07 0.00 92 1012.9
20260507083626 3 223 0.0 0.0 0.00 1.09 0.00 92 1012.8
20260507083125 3 223 0.0 0.0 0.00 1.12 0.00 91 1012.8
20260507082627 3 223 0.0 0.0 0.00 1.14 0.00 91 1012.8
20260507082126 3 223 0.0 0.0 0.00 1.17 0.00 91 1012.9
20260507081626 4 223 0.0 0.0 0.00 1.19 0.00 91 1012.8
20260507081125 4 223 0.0 0.0 0.00 1.19 0.00 91 1012.7
20260507080625 4 223 0.0 0.0 0.00 1.19 0.00 91 1012.8
20260507080126 4 223 0.0 0.0 0.00 1.19 0.00 91 1012.8
20260507075625 5 223 0.0 0.0 0.00 1.19 0.00 91 1012.8
20260507075127 5 223 0.0 0.0 0.00 1.19 0.00 90 1012.8
20260507074627 5 223 0.0 0.0 0.00 1.19 0.00 90 1012.8
20260507074127 5 223 0.0 0.0 0.00 1.19 0.00 90 1012.9
20260507073625 5 223 0.0 0.0 0.00 1.19 0.00 89 1012.9
20260507073126 5 223 0.0 0.0 0.00 1.19 0.00 89 1012.9
20260507072625 5 223 0.0 0.0 0.00 1.19 0.00 88 1013.0
20260507072124 5 223 0.0 0.0 0.00 1.19 0.00 88 1012.9
20260507071623 6 223 0.0 0.0 0.00 1.22 0.00 88 1012.9
20260507071124 6 223 0.0 0.0 0.00 1.22 0.00 87 1012.9
20260507065124 7 223 0.0 0.0 0.00 1.24 0.00 85 1013.0
20260507064625 7 223 0.0 0.0 0.00 1.24 0.00 84 1013.0
20260507064124 7 223 0.0 0.0 0.00 1.27 0.00 83 1013.0
20260507063626 7 223 0.0 0.0 0.00 1.27 0.00 82 1012.9
20260507063123 7 223 0.0 0.0 0.00 1.30 0.00 81 1012.9
20260507062624 7 223 0.0 0.0 0.00 1.30 0.00 82 1012.9
20260507062125 7 223 0.0 0.0 0.00 1.30 0.00 82 1012.9
20260507061625 7 223 0.0 0.0 0.00 1.32 0.00 82 1012.9
20260507061126 7 223 0.0 0.0 0.00 1.32 0.00 81 1013.0
20260507060625 7 223 0.0 0.0 0.00 1.32 0.00 79 1013.1
20260507060125 7 223 0.0 0.0 0.00 1.32 0.00 81 1013.1
20260507055625 8 223 0.0 0.0 0.00 1.35 0.00 82 1013.0
20260507055126 8 223 0.0 0.0 0.00 1.35 0.00 83 1013.2
20260507054126 8 223 0.0 0.0 0.00 1.35 0.00 83 1013.4
20260507053625 8 223 0.0 0.0 0.00 1.35 0.00 83 1013.6
20260507053126 8 223 0.0 0.0 0.00 1.35 0.00 83 1013.6
20260507052625 8 223 0.0 0.0 0.00 1.35 0.00 82 1013.6
20260507052125 8 223 0.0 0.0 0.00 1.37 0.00 82 1013.6
20260507051624 8 223 0.0 0.0 0.00 1.37 0.00 80 1013.7
20260507051124 8 223 0.0 0.0 0.00 1.37 0.00 80 1013.6
20260507050625 8 223 0.0 0.0 0.00 1.40 0.00 79 1013.6
20260507050125 8 223 0.0 0.0 0.00 1.40 0.00 79 1013.6
20260507045625 8 223 0.0 0.0 0.00 1.40 0.00 78 1013.5
20260507045125 8 223 0.0 0.0 0.00 1.40 0.00 78 1013.6
20260507043625 8 223 0.0 0.0 0.00 1.40 0.00 77 1013.5
20260507043125 8 223 0.0 0.0 0.00 1.40 0.00 79 1013.5
20260507042626 8 223 0.0 0.0 0.00 1.40 0.00 78 1013.5
20260507042125 8 223 0.0 0.0 0.00 1.40 0.00 77 1013.6
20260507041626 8 223 0.0 0.0 0.00 1.40 0.00 78 1013.6
20260507041125 8 223 0.0 0.0 0.00 1.40 0.00 75 1013.5
20260507040624 8 223 0.0 0.0 0.00 1.40 0.00 77 1013.5
20260507040125 8 223 0.0 0.0 0.00 1.40 0.00 74 1013.5
20260507035625 8 223 0.0 0.0 0.00 1.40 1.40 74 1013.4
20260507035125 8 223 0.0 0.0 0.00 1.40 1.40 74 1013.3
20260507034125 8 223 0.0 0.0 0.00 1.40 1.40 77 1013.4
20260507033625 8 223 0.0 0.0 0.00 1.40 1.40 77 1013.5
20260507033125 9 223 0.0 0.0 0.00 1.40 1.40 76 1013.4
20260507032626 9 223 0.0 0.0 0.00 1.40 1.40 77 1013.3
20260507032125 9 223 0.0 0.0 0.00 1.40 1.40 76 1013.2
20260507031625 9 223 0.0 0.0 0.00 1.40 1.40 75 1013.1
20260507031126 9 223 0.0 0.0 0.00 1.40 1.40 72 1013.0
20260507030625 9 223 0.0 0.0 0.00 1.40 1.40 73 1013.0
20260507030124 9 223 0.0 0.0 0.00 1.40 1.40 73 1013.0
20260507025624 9 223 0.0 0.0 0.00 1.40 1.40 75 1013.0
20260507025125 9 223 0.0 0.0 0.00 1.40 1.40 73 1012.9
20260507024125 9 223 0.0 0.0 0.00 1.40 1.40 72 1013.0
20260507023625 9 223 0.0 0.0 0.00 1.40 1.40 74 1012.8
20260507023125 9 223 0.0 0.0 0.00 1.40 1.40 75 1013.0
20260507022625 9 223 0.0 0.0 0.00 1.40 1.40 73 1013.0
20260507022125 9 223 0.0 0.0 0.00 1.40 1.40 71 1012.7
20260507021626 10 223 0.0 0.0 0.00 1.40 1.40 73 1012.7
20260507021125 10 223 0.0 0.0 0.00 1.40 1.40 75 1012.7
20260507020626 10 223 0.0 0.0 0.00 1.40 1.40 76 1012.7
20260507015626 10 223 0.0 0.0 0.00 1.40 1.40 71 1012.5
20260507015125 10 162 0.0 0.0 0.00 1.40 1.40 74 1012.4
20260507014625 10 162 0.0 0.0 0.00 1.40 1.40 74 1012.3
20260507014125 10 162 0.0 0.0 0.00 1.40 1.40 74 1012.2
20260507013626 10 162 0.0 0.0 0.00 1.40 1.40 73 1012.1
20260507013125 10 162 0.0 0.0 0.00 1.40 1.40 73 1012.0
20260507012625 10 162 0.0 0.0 0.00 1.40 1.40 73 1012.1
20260507011624 10 162 0.0 0.0 0.00 1.40 1.40 73 1012.1
20260507011125 10 162 0.0 0.0 0.00 1.40 1.40 73 1012.0
20260507010624 10 162 0.0 0.0 0.00 1.40 1.40 72 1012.3
20260507005624 10 162 0.0 0.0 0.00 1.40 1.40 73 1012.3
20260507005125 10 162 0.0 0.0 0.00 1.40 1.40 72 1012.3
20260507004125 11 162 0.0 0.0 0.00 1.40 1.40 73 1012.6
20260507003625 11 162 0.0 0.0 0.00 1.40 1.40 72 1012.5
20260507003124 11 79 0.0 0.0 0.00 1.40 1.40 70 1012.4
20260507002624 11 209 0.0 0.0 0.00 1.40 1.40 71 1012.4
20260507001625 11 134 0.0 0.0 0.00 1.40 1.40 75 1012.6
20260507001124 11 234 0.0 0.0 0.00 1.40 1.40 75 1012.5
20260507000625 11 247 0.0 0.0 0.00 1.40 1.40 77 1012.3
20260507000124 11 265 0.0 0.0 0.00 1.40 1.40 78 1012.1
20260506235626 11 265 0.0 0.0 0.00 1.40 1.40 78 1012.3
20260506235124 11 265 0.0 0.0 0.00 1.40 1.40 77 1012.2
20260506234625 11 265 0.0 0.0 0.00 1.40 1.40 77 1012.1
20260506234124 12 264 0.0 0.0 0.00 1.40 1.40 78 1012.0
20260506233626 12 265 0.0 0.0 0.00 1.40 1.40 75 1011.9
20260506233125 12 265 0.0 0.0 0.00 1.40 1.40 78 1011.8
20260506232626 12 265 0.0 0.0 0.00 1.40 1.40 75 1011.9
20260506232126 12 264 0.0 0.0 0.00 1.40 1.40 76 1011.8